Weather in Begichevo

Russia / Oryol Oblast     52°45′07″N   37°43′23″E
temp.,
°C
wind,
m/s
gust,
m/s
humid.,
%
clouds,
%
prec.,
mm/h
press.,
hPa
HPBL,
m
12 may, wed
wed1200:00+6ese39870 0.0 1025196
03:00+5e369255 0.0 1025106
06:00+6ene49896 0.0 1025243
09:00+11ene566495 0.0 1024693
12:00+11e4578100 0.9 10221020
15:00+11ne4375100 1.6 1020811
18:00+11ese457497 0.1 1018926
21:00+8e411915 0.1 1018244
13 may, thu
thu1300:00+8e5139199 0.0 1018299
03:00+9ese61389100 0.1 1017438
06:00+9ese51194100 0.1 1017457
09:00+9ese3795100 1.3 1017385
12:00+10se5995100 6.1 1016445
15:00+12sse58854 8.9 1016474
18:00+14s3683100 0.0 1015579
21:00+11se349495 0.0 101653
14 may, fri
fri1400:00+10ese3497100 0.0 101663
03:00+10se3393100 0.0 101653
06:00+11ese379782 0.6 1016153
09:00+16se5984100 1.1 1015443
12:00+20se796984 0.0 1014974
15:00+22sse71166100 0.3 10121523
18:00+21s71276100 0.9 1012608
21:00+16sse3589100 0.9 101268
15 may, sat
sat1500:00+16s3985100 0.2 1011174
03:00+14n349898 4.8 101198
06:00+14e41094100 2.6 1010299
09:00+16se61395100 6.3 1010424
12:00+21ssw57747 2.1 1010783
15:00+22ssw6863100 2.7 10101438
18:00+19sw587589 0.6 1011533
21:00+15sw338936 0.7 101246
16 may, sun
sun1600:00+13wsw22920 0.0 101234
03:00+12wsw229326 0.0 101316
06:00+13sw1191100 0.0 101422
09:00+17sw22740 0.0 1014489
12:00+20sw236116 0.0 10141174
15:00+22sw235570 0.1 10131679
18:00+22sse025929 0.0 10131598
21:00+17ene337297 0.0 101322